Flag for South Korea Weather past 2 weeks in Cheongju, South Korea

Now
54 °F

Clear.


Feels Like: 54 °F
Forecast: 51 / 78 °F
Wind: 1 mph from East

Location: Chongju Ab

Current Time: Sep 19, 2014 at 3:39:01 AM

Latest Report: Sep 19, 2014 at 3:00 AM


Visibility: 6 mi

Pressure: 30.04 "Hg

Humidity: 94%

Dew point: 52 °F

Location of CheongjuLocation

Historic Weather in Cheongju — Graph

°F

Cheongju temperature yesterday

Maximum temperature yesterday: 77 °F (at 3:00 PM)
Minimum temperature yesterday: 57 °F (at 3:00 AM)
Average temperature yesterday: 65 °F

Past Weeks' High & Low Weather Summary

 TemperatureHumidityPressure
High86 °F (Sep 6, 3:00 PM)100% (Sep 7, 9:00 AM)30.09 "Hg (Sep 7, 9:00 AM)
Low54 °F (Sep 10, 4:00 AM)32% (Sep 16, 3:00 PM)29.68 "Hg (Sep 8, 3:00 PM)
Average70 °F73%29.90 "Hg
* Reported Sep 4 2:00 AM — Sep 19 2:00 AM, Cheongju, Weather by CustomWeather, © 2014

Note: Actual official high and low records may vary slightly from our data, if they occured in-between our weather recording intervals... More about our weather records

Advertising

Cheongju weather history for previous 24 hours

 ConditionsComfort  
Time TempWeatherWind HumidityBarometerVisibility
2:00 AM
Sep 19
54 °FClear.3 mph94%30.04 "Hg10 mi
1:00 AM55 °FPassing clouds.2 mph88%30.05 "HgN/A
12:00 AM55 °FPassing clouds.2 mph94%30.05 "HgN/A
11:00 PM
Sep 18
59 °FClear.1 mph82%30.04 "Hg10 mi
10:00 PM63 °FClear.3 mph83%30.07 "Hg10 mi
9:00 PM63 °FClear.2 mph83%30.04 "Hg10 mi
8:00 PM64 °FClear.5 mph78%30.04 "Hg10 mi
7:00 PM68 °FClear.5 mph69%30.01 "Hg10 mi
6:00 PM70 °FPartly sunny.6 mph64%30.01 "HgN/A
5:00 PM73 °FPartly sunny.6 mph57%30.01 "HgN/A
4:00 PM73 °FPartly sunny.6 mph53%30.01 "HgN/A
3:00 PM77 °FPartly sunny.6 mph42%30.01 "HgN/A
2:00 PM75 °FPartly sunny.5 mph47%30.04 "HgN/A
1:00 PM75 °FPartly sunny.6 mph44%30.04 "HgN/A
12:00 PM73 °FPartly sunny.6 mph50%30.04 "HgN/A
11:00 AM72 °FPartly sunny.5 mph61%30.07 "HgN/A
10:00 AM68 °FSunny.6 mph69%30.09 "Hg10 mi
9:00 AM64 °FSunny.5 mph78%30.09 "Hg10 mi
8:00 AM61 °FSunny.3 mph88%30.07 "Hg10 mi
7:00 AM57 °FClear.2 mph88%30.07 "Hg5 mi
6:00 AM59 °FClear.3 mph88%30.04 "Hg4 mi
5:00 AM57 °FClear.3 mph82%30.04 "Hg4 mi
4:00 AM59 °FClear.3 mph88%30.04 "Hg5 mi
3:00 AM57 °FClear.2 mph88%30.01 "Hg5 mi
Weather by CustomWeather, © 2014

See weather overviewHow to use our weather pages